Simultaneous Nadir Overpasses (SNOs) Predictions

Prediction of SNOs between LANDSAT-8 and METOP-B Satellite Orbit:

Table of predicted SNOs for the next 14.0 days since TLE Epoch: 7/25/2020
Index Date (LANDSAT-8) Time (LANDSAT-8) Lat,Lon (LANDSAT-8) SZA (LANDSAT-8 ) Date (METOP-B) Time (METOP-B) Lat,Lon (METOP-B) SZA (METOP-B ) Distance(km) Time Diff (sec)
1 07/26/2020 10:55:15 -81.17,-123.07 116.06 07/26/2020 10:54:11 -81.17,-122.93 116.07 2.37 64
2 07/26/2020 11:44:41 81.17, 44.69 63.97 07/26/2020 11:44:51 81.18, 44.69 63.98 0.40 10
3 07/29/2020 06:29:31 -81.17, -56.61 115.40 07/29/2020 06:28:32 -81.17, -56.53 115.42 1.38 59
4 07/29/2020 07:18:57 81.17, 111.12 64.62 07/29/2020 07:19:12 81.18, 111.09 64.63 0.66 15
5 08/01/2020 02:03:47 -81.17, 9.84 114.71 08/01/2020 02:02:53 -81.17, 9.87 114.73 0.54 54
6 08/01/2020 02:53:12 81.19, 177.90 65.37 08/01/2020 02:53:32 81.19, 177.86 65.37 0.98 20
7 08/03/2020 21:38:02 -81.17, 76.26 113.98 08/03/2020 21:37:13 -81.17, 76.25 114.00 0.18 49
8 08/03/2020 22:27:27 81.19,-115.71 66.10 08/03/2020 22:27:52 81.19,-115.77 66.10 1.13 25
9 08/06/2020 17:12:18 -81.16, 142.66 113.21 08/06/2020 17:11:34 -81.16, 142.62 113.23 0.74 44
